Regional Weather Roundup
Issued by NWS Upton, NY

Current Version | Previous Version | Text Only | Print | Product List | Glossary Off
Versions: 1 2 3 4 5 6 7 8 9 10 11 12 13 14 15 16 17 18 19 20 21 22 23 24 25 26 27 28 29 30 31 32 33 34 35 36 37 38 39 40 41 42 43 44 45 46 47 48 49 50
000 ASUS41 KOKX 031008 RWROKX REGIONAL WEATHER ROUNDUP NATIONAL WEATHER SERVICE NEW YORK NY 600 AM EDT FRI JUL 03 2015 NOTE: "FAIR" INDICATES FEW OR NO CLOUDS BELOW 12,000 FEET WITH NO SIGNIFICANT WEATHER AND/OR OBSTRUCTIONS TO VISIBILITY. NYZ071-072-176-178-NJZ106-104-031100- NEW YORK CITY METRO AREA CITY SKY/WX TMP DP RH WIND PRES REMARKS CENTRAL PARK CLEAR 66 51 58 VRB3 29.97R LAGUARDIA APRT PTCLDY 67 52 58 NE6 29.93R KENNEDY INTL PTCLDY 66 54 65 N5 29.94R NEWARK/LIBERTY PTCLDY 66 54 65 N7 29.94R BRNX BOT. GARD N/A 64 50 59 N7 29.93F TETERBORO CLEAR 64 53 67 CALM 29.93R $$ NYZ177-179-078>081-031100- LONG ISLAND NEW YORK CITY SKY/WX TMP DP RH WIND PRES REMARKS FARMINGDALE CLEAR 63 54 72 N5 29.93R ISLIP MOCLDY 64 55 72 N9 29.91R SHIRLEY PTCLDY 61 57 87 N6 29.93R WESTHAMPTON PTCLDY 59 58 96 NW6 29.94R MONTAUK POINT N/A 65 60 84 CALM 29.91R $$ NYZ052-065-067-031100- HUDSON VALLEY CITY SKY/WX TMP DP RH WIND PRES REMARKS WHITE PLAINS PTCLDY 62 49 62 N13 29.94R NEWBURGH CLEAR 55 54 94 CALM 29.97R MONTGOMERY PTCLDY 54 53 97 CALM 29.96R POUGHKEEPSIE CLEAR 53 51 93 CALM 29.95R ALBANY PTCLDY 52 47 83 CALM 29.98R $$ NJZ001-105-106-008-010-013-015-019>022-104-031100- NEW JERSEY CITY SKY/WX TMP DP RH WIND PRES REMARKS NEWARK/LIBERTY PTCLDY 66 54 65 N7 29.94R TETERBORO CLEAR 64 53 67 CALM 29.93R CALDWELL CLEAR 60 55 83 CALM 29.95R MORRISTOWN CLEAR 59 55 88 CALM 29.95R FOG SOMERVILLE CLEAR 59 56 89 NW3 29.93R FOG SUSSEX CLEAR 54 52 93 CALM 29.97R FOG ANDOVER N/A 55 54 96 CALM 29.98R TRENTON CLEAR 62 59 90 N3 29.94R MILLVILLE FOG 59 59 100 CALM 29.93S VSB 1/2 ATLANTIC CITY CLEAR 62 61 96 CALM 29.94R FOG WRIGHTSTOWN CLEAR 61 61 100 N2 29.92R TOMS RIVER CLEAR 63 59 88 N3 29.94R BELMAR CLEAR 63 57 82 N5 29.93R $$ PAZ047>061-062-071-031100- EASTERN PENNSYLVANIA CITY SKY/WX TMP DP RH WIND PRES REMARKS PHILADELPHIA PTCLDY 68 61 78 VRB5 29.94R ALLENTOWN CLEAR 59 54 83 NW5 29.97R SCRANTON MOCLDY 57 52 83 E5 30.00R $$ CTZ002-004>006-009-010-012-RIZ004-006-007-MAZ004-011-015-031100- SOUTHERN NEW ENGLAND IN CT CITY SKY/WX TMP DP RH WIND PRES REMARKS BRADLEY INTL CLEAR 57 50 77 N7 29.92R HARTFORD CLEAR 61 50 67 VRB5 29.93R DANBURY CLEAR 56 46 69 CALM 29.96R WTRBRY/OXFORD CLEAR 55 46 71 CALM 29.95R BRIDGEPORT CLEAR 65 50 58 N7 29.92R MERIDEN CLEAR 56 52 86 CALM 29.93R NEW HAVEN CLEAR 63 49 60 N6 29.92R CHESTER FAIR 61 54 77 N5 29.93R GROTON CLEAR 62 55 77 N7 29.90R WILLIMANTIC CLEAR 57 54 89 CALM 29.92R IN RI CITY SKY/WX TMP DP RH WIND PRES REMARKS PROVIDENCE PTCLDY 63 54 72 N9 29.90R BLOCK ISLAND CLEAR 63 57 82 N5 29.90R WESTERLY CLEAR 62 57 83 N3 29.91R IN MA CITY SKY/WX TMP DP RH WIND PRES REMARKS BOSTON PTCLDY 63 52 67 NW8 29.91R WORCESTER CLEAR 62 44 51 N9 29.94R WESTFIELD CLEAR 55 52 89 N6 29.94R PROVINCETOWN CLEAR 61 5 11 NE7 29.88S NANTUCKET PTCLDY 63 61 93 CALM 29.86R $$ ANZ330-335-338-340-345-350-353-355-031100- COASTAL MARINE OBSERVATIONS STATION/POSITION TIME SKY/WX TEMP WIND PRES VSBY WAVE AIR SEA DIR/SP/G HT/PER (UTC) (F) (DEG/KT/KT) (MB) (MI) (FT/S) NY HARB ENTRANCE 0950 69 68 10/ 10/ 12 1012.9 3/ 8 4S FIRE IS 0903 69 N/A 2/ 7 20S FIRE ISLAND 0950 68 67 360/ 8/ 10 1012.7 2/ 8 GREAT SOUTH BAY NOT AVBL 23SW MTP 0950 66 65 340/ 8/ 10 1012.2 3/ 8 HUDSON CANYON NOT AVBL KINGS POINT 0900 67 66 60/ 3/ 5 1012.2 CENTRAL LI SOUND NOT AVBL EASTERN LI SOUND 0900 66 64 350/ 10/ 12 N/A ROBBINS REEF 0900 68 340/ 6/ 7 1012.0 $$ >>>>>>>>>>>>>>>>>>>>>>>>>>>> KEY <<<<<<<<<<<<<<<<<<<<<<<<<<< > < > SKY/WX - SKY CONDITION/PRESENT WEATHER < > TMP - TEMPERATURE IN FAHRENHEIT < > DP - DEWPOINT IN FAHRENHEIT < > RH - RELATIVE HUMIDITY IN PERCENT < > WIND - DIRECTION AND SPEED IN MPH < > PRES - MEAN SEA LEVEL PRESSURE IN INCHES OF HG < > WCI - WIND CHILL INDEX < > VSB - VISIBILITY IN MILES < > HX - HEAT INDEX < > TC - TEMPERATURE IN CELSIUS < > VRB - VARIABLE WIND DIRECTION < > < >>>>>>>>>>>>>>>>>>>>>>>>>>>> KEY <<<<<<<<<<<<<<<<<<<<<<<<<<<

USA.gov is the U.S. government's official web portal to all federal, state and local government web resources and services.